Weather reports worldwide

Advertisment
Leek Thorncliffe, United Kingdom (3330): temperature & dewpoint: 12.10.2018 13:00:00 - 18.10.2018 13:00:00 (BST)Leek Thorncliffe, United Kingdom (3330): temperature -20cm & temperature -100cm: 12.10.2018 13:00:00 - 18.10.2018 13:00:00 (BST)Leek Thorncliffe, United Kingdom (3330): wind speed & gusts: 12.10.2018 13:00:00 - 18.10.2018 13:00:00 (BST)Leek Thorncliffe, United Kingdom (3330): wind direction: 12.10.2018 13:00:00 - 18.10.2018 13:00:00 (BST)Leek Thorncliffe, United Kingdom (3330): reduced air pressure: 12.10.2018 13:00:00 - 18.10.2018 13:00:00 (BST)Leek Thorncliffe, United Kingdom (3330): visibility: 12.10.2018 13:00:00 - 18.10.2018 13:00:00 (BST)Leek Thorncliffe, United Kingdom (3330): precipitation: 12.10.2018 13:00:00 - 18.10.2018 13:00:00 (BST)
Date & Time tt [°C] td [°C] tt -20cm [°C] tt -100cm [°C] ff [km/h] ff [kn] fx [km/h] fx [kn] dd ppp [hPa] vv [km] rr [mm]
18.10.2018 13:00:00 11,9 2,5 - - 2 1 - - SE 1028,6 45 0,0
18.10.2018 12:00:00 10,7 4,0 - - 13 7 - - NE 1029,2 29 0,0
18.10.2018 11:00:00 9,9 4,0 - - 15 8 - - ENE 1029,5 35 0,0
18.10.2018 10:00:00 8,3 2,7 12,0 12,7 18 10 - - ENE 1029,2 35 0,0
18.10.2018 09:00:00 7,1 2,2 - - 18 10 - - E 1028,9 35 0,0
18.10.2018 08:00:00 6,6 1,4 - - 21 11 - - E 1028,9 45 0,0
18.10.2018 07:00:00 6,8 1,8 - - 22 12 - - E 1028,2 50 0,0
18.10.2018 06:00:00 6,2 2,6 - - 21 11 - - ENE 1028,0 50 0,0
18.10.2018 05:00:00 6,0 2,8 - - 21 11 - - ENE 1027,8 45 0,0
18.10.2018 04:00:00 6,0 3,7 - - 18 10 - - ENE 1027,7 35 0,0
18.10.2018 03:00:00 5,8 5,1 - - 13 7 - - ENE 1027,8 40 0,0
18.10.2018 02:00:00 5,3 5,0 - - 13 7 - - NE 1027,8 9 0,0
18.10.2018 01:00:00 5,9 5,3 - - 13 7 - - NE 1027,6 14 0,0
18.10.2018 00:00:00 6,4 5,4 - - 9 5 - - NE 1027,2 25 0,0
17.10.2018 23:00:00 7,3 6,4 - - 9 5 - - NNE 1026,7 18 0,0
17.10.2018 22:00:00 7,7 7,4 - - 11 6 - - NNE 1026,0 7 0,0
17.10.2018 21:00:00 8,2 7,7 - - 8 4 - - N 1025,4 10 0,0
17.10.2018 20:00:00 8,9 8,2 - - 8 4 - - N 1024,4 11 0,0
17.10.2018 19:00:00 9,4 8,2 - - 8 4 - - N 1023,5 14 0,0
17.10.2018 18:00:00 10,8 8,7 - - 8 4 - - NNW 1022,5 17 0,0
17.10.2018 17:00:00 11,5 8,6 - - 9 5 - - NNW 1021,6 17 0,0
17.10.2018 16:00:00 12,0 8,8 - - 9 5 - - NNW 1020,9 18 0,0
17.10.2018 15:00:00 12,7 10,0 - - 8 4 - - NW 1020,4 14 0,0
17.10.2018 14:00:00 13,0 9,7 - - 9 5 - - NW 1019,9 15 0,0
17.10.2018 13:00:00 12,7 10,5 - - 4 2 - - NW 1019,9 13 0,0
17.10.2018 12:00:00 11,1 10,1 - - 5 3 - - NNW 1019,8 11 0,0
17.10.2018 11:00:00 10,5 10,3 - - 5 3 - - NNW 1019,2 8 0,0
17.10.2018 10:00:00 10,3 10,2 12,4 12,9 2 1 - - WSW 1018,7 5 0,0
17.10.2018 09:00:00 9,5 9,4 - - 2 1 - - WNW 1018,0 4,0 0,0
17.10.2018 08:00:00 9,7 9,6 - - 5 3 - - SSW 1017,3 3,2 0,0
17.10.2018 07:00:00 9,7 9,7 - - 8 4 - - SW 1016,7 3,0 0,0
17.10.2018 06:00:00 9,8 9,8 - - 8 4 - - SW 1016,0 1,8 0,0
17.10.2018 05:00:00 9,8 9,8 - - 9 5 - - SW 1015,5 3,4 0,0
17.10.2018 04:00:00 9,9 9,9 - - 11 6 - - SW 1015,0 6 0,2
17.10.2018 03:00:00 9,9 9,7 - - 9 5 - - SSW 1015,3 3,4 0,0
17.10.2018 02:00:00 10,1 9,6 - - 11 6 - - SSW 1015,3 13 0,0
17.10.2018 01:00:00 9,9 9,6 - - 11 6 - - S 1015,3 12 0,2
17.10.2018 00:00:00 10,0 9,5 - - 13 7 - - SSW 1015,2 3,9 0,0
16.10.2018 23:00:00 10,5 9,7 - - 15 8 - - SW 1015,0 3,7 0,2
16.10.2018 22:00:00 10,9 9,6 - - 11 6 - - SSW 1015,0 45 0,0
16.10.2018 21:00:00 11,2 10,5 - - 13 7 - - SW 1014,7 20 0,0
16.10.2018 20:00:00 10,7 10,1 - - 8 4 - - SW 1014,4 15 0,0
16.10.2018 19:00:00 11,9 10,9 - - 13 7 - - SSW 1014,1 25 0,0
16.10.2018 18:00:00 12,7 12,3 - - 15 8 - - SW 1014,0 9 0,0
16.10.2018 17:00:00 13,0 12,5 - - 15 8 - - SSW 1013,6 6 0,0
16.10.2018 16:00:00 12,9 12,2 - - 15 8 - - SSW 1013,8 5 0,0
16.10.2018 15:00:00 13,1 12,1 - - 18 10 - - SSW 1014,0 7 0,0
16.10.2018 14:00:00 13,4 12,5 - - 21 11 - - SW 1013,8 8 0,0
16.10.2018 13:00:00 13,0 11,9 - - 16 9 - - SSW 1013,9 8 0,0
16.10.2018 12:00:00 12,3 12,2 - - 16 9 - - S 1014,2 5 0,0
16.10.2018 11:00:00 11,0 11,0 - - 13 7 - - SSW 1014,7 3,1 0,0
16.10.2018 10:00:00 10,6 10,6 12,2 13,0 15 8 - - S 1014,6 4,0 0,0
16.10.2018 09:00:00 10,0 10,0 - - 11 6 - - SSW 1014,9 0,9 0,0
16.10.2018 08:00:00 9,9 9,8 - - 16 9 - - S 1014,3 2,2 0,0
16.10.2018 07:00:00 10,4 10,2 - - 15 8 - - S 1014,2 10 0,0
16.10.2018 06:00:00 9,9 9,9 - - 11 6 - - S 1014,5 6 0,0
16.10.2018 05:00:00 9,3 9,3 - - 16 9 - - SE 1014,4 1,8 0,0
16.10.2018 04:00:00 9,2 9,2 - - 11 6 - - SE 1014,8 0,7 0,0
16.10.2018 03:00:00 9,0 8,9 - - 18 10 - - ESE 1014,7 4,2 0,0
16.10.2018 02:00:00 8,7 8,6 - - 28 15 - - E 1015,0 5 0,0
16.10.2018 01:00:00 8,5 8,4 - - 29 16 - - E 1015,0 2,8 0,0
16.10.2018 00:00:00 8,5 8,3 - - 31 17 - - E 1015,3 2,6 0,0
15.10.2018 23:00:00 8,2 7,9 - - 37 20 50 27 E 1015,2 3,7 0,0
15.10.2018 22:00:00 8,1 7,8 - - 41 22 52 28 E 1015,2 4,9 0,0
15.10.2018 21:00:00 8,2 7,9 - - 41 22 55 30 E 1015,0 6 0,0
15.10.2018 20:00:00 8,2 7,2 - - 44 24 55 30 E 1014,5 19 0,0
15.10.2018 19:00:00 8,4 7,7 - - 34 18 46 25 E 1015,0 28 0,0
15.10.2018 18:00:00 8,8 8,2 - - 34 18 46 25 E 1014,6 5 0,0
15.10.2018 17:00:00 9,2 8,3 - - 34 18 - - E 1014,3 13 0,0
15.10.2018 16:00:00 9,2 8,3 - - 31 17 - - E 1014,4 9 0,2
15.10.2018 15:00:00 9,0 7,9 - - 31 17 48 26 E 1014,2 6 0,0
15.10.2018 14:00:00 9,4 8,2 - - 35 19 46 25 E 1013,6 30 0,0
15.10.2018 13:00:00 8,9 8,0 - - 34 18 48 26 E 1013,6 30 0,4
15.10.2018 12:00:00 8,6 7,9 - - 37 20 48 26 E 1013,5 8 0,4
15.10.2018 11:00:00 8,1 7,4 - - 28 15 - - ENE 1013,9 21 0,0
15.10.2018 10:00:00 7,9 7,2 12,5 13,0 34 18 - - ENE 1013,5 30 0,0
15.10.2018 09:00:00 7,2 6,7 - - 28 15 - - ENE 1013,7 13 0,2
15.10.2018 08:00:00 7,3 6,5 - - 31 17 46 25 E 1013,1 5 0,0
15.10.2018 07:00:00 7,3 5,9 - - 39 21 52 28 E 1012,0 11 0,0
15.10.2018 06:00:00 7,3 5,6 - - 34 18 - - ENE 1011,3 50 0,0
15.10.2018 05:00:00 7,2 5,5 - - 21 11 - - ENE 1012,2 50 0,0
15.10.2018 04:00:00 7,3 5,1 - - 22 12 - - ENE 1011,8 50 0,0
15.10.2018 03:00:00 7,2 5,3 - - 21 11 - - ENE 1012,6 45 0,0
15.10.2018 02:00:00 7,3 5,2 - - 15 8 - - ENE 1012,6 50 0,0
15.10.2018 01:00:00 7,1 5,1 - - 24 13 - - ENE 1012,3 50 0,0
15.10.2018 00:00:00 7,1 4,9 - - 18 10 - - ENE 1011,7 50 0,0
14.10.2018 23:00:00 6,8 5,0 - - 15 8 - - NE 1012,1 50 0,0
14.10.2018 22:00:00 6,8 4,9 - - 18 10 - - ENE 1012,2 50 0,0
14.10.2018 21:00:00 6,3 4,5 - - 15 8 - - ENE 1011,7 50 0,0
14.10.2018 20:00:00 7,1 4,6 - - 18 10 - - ENE 1011,4 50 0,0
14.10.2018 19:00:00 7,6 5,9 - - 18 10 - - ENE 1011,2 50 0,0
14.10.2018 18:00:00 8,4 6,6 - - 8 4 - - NNE 1010,4 50 0,0
14.10.2018 17:00:00 8,0 5,8 - - 15 8 - - NNE 1009,8 50 0,0
14.10.2018 16:00:00 7,8 6,1 - - 28 15 - - E 1008,8 50 0,2
14.10.2018 15:00:00 7,4 6,1 - - 26 14 - - ENE 1008,4 10 0,8
14.10.2018 14:00:00 7,5 6,2 - - 22 12 - - NE 1008,6 14 1,0
14.10.2018 13:00:00 7,9 6,9 - - 11 6 - - NNE 1009,5 9 2,2
14.10.2018 12:00:00 8,2 7,2 - - 13 7 - - NNE 1009,4 4,7 2,0
14.10.2018 11:00:00 8,3 7,9 - - 9 5 - - N 1009,2 6 3,0
14.10.2018 10:00:00 8,3 8,1 13,5 12,9 5 3 - - NNW 1008,2 5 3,2
14.10.2018 09:00:00 8,7 8,3 - - 11 6 - - N 1007,9 8 1,0
14.10.2018 08:00:00 9,0 8,6 - - 13 7 - - N 1006,8 28 0,6
14.10.2018 07:00:00 9,4 9,2 - - 9 5 - - NNW 1007,1 25 1,2
14.10.2018 06:00:00 9,8 9,5 - - 15 8 - - WNW 1006,7 3,9 0,0
14.10.2018 05:00:00 10,2 9,6 - - 13 7 - - WNW 1006,2 20 0,2
14.10.2018 04:00:00 12,5 9,7 - - 21 11 - - WSW 1005,2 45 0,0
14.10.2018 03:00:00 13,1 10,7 - - 22 12 - - SW 1004,6 30 0,0
14.10.2018 02:00:00 13,9 10,8 - - 26 14 - - SW 1004,3 29 0,0
14.10.2018 01:00:00 14,6 11,1 - - 26 14 - - SSW 1003,7 26 0,0
14.10.2018 00:00:00 15,3 12,8 - - 26 14 - - SSW 1003,7 17 0,0
13.10.2018 23:00:00 15,9 12,5 - - 29 16 54 29 SSW 1003,4 20 0,0
13.10.2018 22:00:00 16,5 13,4 - - 31 17 57 31 SSW 1002,8 18 0,0
13.10.2018 21:00:00 17,1 14,1 - - 34 18 54 29 SSW 1002,3 17 0,0
13.10.2018 20:00:00 17,4 14,3 - - 37 20 63 34 SSW 1002,1 19 0,0
13.10.2018 19:00:00 17,9 14,2 - - 35 19 59 32 SSW 1001,4 23 0,0
13.10.2018 18:00:00 17,4 15,3 - - 39 21 67 36 SSW 1001,3 5 0,0
13.10.2018 17:00:00 19,0 14,2 - - 42 23 68 37 SSW 1000,4 40 0,0
13.10.2018 16:00:00 19,5 13,9 - - 50 27 76 41 SSW 1000,6 45 0,0
13.10.2018 15:00:00 18,9 14,6 - - 37 20 68 37 SSW 1001,7 45 0,0
13.10.2018 14:00:00 18,8 15,0 - - 42 23 72 39 SSW 1001,9 40 0,0
13.10.2018 13:00:00 18,4 15,4 - - 42 23 68 37 SSW 1002,6 27 0,0
13.10.2018 12:00:00 17,6 16,1 - - 44 24 76 41 S 1003,0 29 0,0
13.10.2018 11:00:00 16,4 16,0 - - 41 22 63 34 S 1003,6 6 0,0
13.10.2018 10:00:00 16,9 16,5 13,2 12,7 44 24 68 37 S 1003,3 7 0,6
13.10.2018 09:00:00 16,6 16,4 - - 39 21 61 33 S 1003,5 5 0,2
13.10.2018 08:00:00 16,3 16,2 - - 34 18 52 28 S 1003,8 7 1,8
13.10.2018 07:00:00 16,7 16,3 - - 31 17 55 30 S 1003,8 19 0,2
13.10.2018 06:00:00 16,8 16,4 - - 34 18 52 28 S 1003,9 8 0,0
13.10.2018 05:00:00 16,6 16,3 - - 31 17 50 27 S 1004,2 45 0,4
13.10.2018 04:00:00 16,5 16,3 - - 31 17 55 30 SSW 1004,5 5 0,6
13.10.2018 03:00:00 16,4 16,2 - - 31 17 46 25 S 1004,8 6 1,0
13.10.2018 02:00:00 16,2 16,0 - - 31 17 52 28 SSW 1005,1 11 0,4
13.10.2018 01:00:00 16,4 16,0 - - 35 19 52 28 SSW 1004,8 9 0,2
13.10.2018 00:00:00 16,3 16,0 - - 35 19 61 33 SSW 1004,9 2,9 1,8
12.10.2018 23:00:00 16,4 15,7 - - 41 22 59 32 SSW 1004,5 21 0,2
12.10.2018 22:00:00 16,3 15,4 - - 41 22 63 34 SSW 1004,2 16 0,2
12.10.2018 21:00:00 16,4 15,2 - - 39 21 70 38 SSW 1003,7 28 0,2
12.10.2018 20:00:00 16,6 14,8 - - 42 23 65 35 SSW 1003,1 35 0,0
12.10.2018 19:00:00 16,5 14,7 - - 39 21 70 38 SSW 1002,6 28 0,0
12.10.2018 18:00:00 16,5 14,7 - - 44 24 81 44 SSW 1001,5 26 0,0
12.10.2018 17:00:00 16,3 14,3 - - 46 25 81 44 SSW 1000,9 23 0,0
12.10.2018 16:00:00 15,9 13,9 - - 50 27 76 41 SSW 1000,8 20 0,0
12.10.2018 15:00:00 15,1 13,4 - - 50 27 85 46 S 1000,4 22 0,0
12.10.2018 14:00:00 14,4 13,7 - - 55 30 81 44 S 1001,1 13 1,2
12.10.2018 13:00:00 14,2 13,5 - - 46 25 74 40 S 1001,8 11 0,4

tt = temperature
td = dewpoint
tt -20cm = temperature -20cm
tt -100cm = temperature -100cm
ff = wind speed
fx = gusts
dd = wind direction
ppp = reduced air pressure
vv = visibility
rr = precipitation

Next stations